Location: Del Amo
(33.8464°N, 118.2104°W)
Time: 06:17:43
(UTC+00:00)

HTV-X1 - Pass Details

Date: 24 May 2026
Orbit: 368 x 378 km, 51.6° (Epoch: 26 May)

Event Time Altitude Azimuth Distance (km) Brightness Sun altitude
Rises 05:04:09 0° 321° (NW) 2,215 ? -22.6°
Reaches altitude 10° 05:06:18 10° 332° (NNW) 1,365 ? -22.9°
Enters shadow 05:08:10 26° 1° (N) 769 ? -23.2°
